Weather History for Grand Rapids, MN

Change the Weather History Date:

Thursday, September 13, 2012

  Actual Average Record
Temperature  
Mean Temperature 57 °F -  
Max Temperature 66 °F 66 °F 90 °F (1939)
Min Temperature 48 °F 45 °F 24 °F (1923)
Degree Days  
Heating Degree Days 8    
Growing Degree Days 7 (Base 50)    
Moisture  
Dew Point 32 °F    
Average Humidity 41    
Maximum Humidity 76    
Minimum Humidity 24    
Precipitation  
Precipitation 0.00 in - - ()
Sea Level Pressure  
Sea Level Pressure 30.27 in    
Wind  
Wind Speed 7 mph (WNW)    
Max Wind Speed 14 mph    
Max Gust Speed 21 mph    
Visibility 10 miles    
Events      
Averages and records for this station are not official NWS values.
T = Trace of Precipitation, MM = Missing Value Source: NWS Daily Summary

Daily Weather History Graph

Daily Weather History Graph

Search for Another Location

Airport:

Trip Planner

Search our weather history database for the weather conditions in past years. The results will help you decide how hot, cold, wet, or windy it might be!

Date:

Astronomy

Sep. 13, 2012 Rise Set
Actual Time 6:49 AM CDT 7:28 PM CDT
Civil Twilight 6:18 AM CDT 7:59 PM CDT
Nautical Twilight 5:42 AM CDT 8:36 PM CDT
Astronomical Twilight 5:03 AM CDT 9:14 PM CDT
Moon 4:02 AM CDT (9/13) 5:57 PM CDT (9/13)
Length of Visible Light 13h 40m
Length of Day
12h 39m
Waning Crescent, 7% of the Moon is Illuminated
Sep 13
Waning Crescent
Sep 15
New
Sep 22
First Quarter
Sep 29
Full
Oct 8
Last Quarter

Hourly Weather History & Observations

Time (CDT) Temp. Dew Point Humidity Pressure Visibility Wind Dir Wind Speed Gust Speed Precip Events Conditions
12:15 AM 57.2 °F 26.6 °F 31% 30.18 in 10.0 mi WNW 11.5 mph - N/A   Clear
12:35 AM 57.2 °F 28.4 °F 33% 30.18 in 10.0 mi WNW 8.1 mph - N/A   Clear
12:55 AM 55.4 °F 28.4 °F 36% 30.18 in 10.0 mi WNW 6.9 mph - N/A   Clear
1:15 AM 55.4 °F 30.2 °F 38% 30.18 in 10.0 mi WNW 6.9 mph - N/A   Clear
1:35 AM 55.4 °F 30.2 °F 38% 30.19 in 10.0 mi WNW 8.1 mph - N/A   Clear
1:55 AM 53.6 °F 30.2 °F 41% 30.19 in 10.0 mi West 4.6 mph - N/A   Clear
2:15 AM 53.6 °F 30.2 °F 41% 30.20 in 10.0 mi West 4.6 mph - N/A   Clear
2:35 AM 51.8 °F 30.2 °F 44% 30.21 in 10.0 mi WSW 4.6 mph - N/A   Clear
2:55 AM 51.8 °F 32.0 °F 47% 30.21 in 10.0 mi WSW 5.8 mph - N/A   Clear
3:15 AM 51.8 °F 32.0 °F 47% 30.22 in 10.0 mi WSW 5.8 mph - N/A   Clear
3:35 AM 50.0 °F 32.0 °F 50% 30.22 in 10.0 mi WSW 5.8 mph - N/A   Clear
3:55 AM 50.0 °F 32.0 °F 50% 30.22 in 10.0 mi WSW 5.8 mph - N/A   Clear
4:15 AM 48.2 °F 30.2 °F 50% 30.23 in 10.0 mi WSW 5.8 mph - N/A   Clear
4:35 AM 50.0 °F 30.2 °F 47% 30.23 in 10.0 mi WSW 5.8 mph - N/A   Clear
4:55 AM 48.2 °F 30.2 °F 50% 30.24 in 10.0 mi WSW 4.6 mph - N/A   Clear
5:15 AM 48.2 °F 32.0 °F 54% 30.24 in 10.0 mi WSW 4.6 mph - N/A   Clear
5:35 AM 48.2 °F 32.0 °F 54% 30.24 in 10.0 mi West 4.6 mph - N/A   Clear
5:55 AM 48.2 °F 32.0 °F 54% 30.25 in 10.0 mi West 5.8 mph - N/A   Clear
6:15 AM 48.2 °F 32.0 °F 54% 30.25 in 10.0 mi West 5.8 mph - N/A   Clear
6:35 AM 48.2 °F 32.0 °F 54% 30.26 in 10.0 mi West 5.8 mph - N/A   Clear
6:55 AM 48.2 °F 33.8 °F 58% 30.26 in 10.0 mi West 4.6 mph - N/A   Clear
7:15 AM 48.2 °F 33.8 °F 58% 30.27 in 10.0 mi WSW 4.6 mph - N/A   Clear
7:35 AM 48.2 °F 33.8 °F 58% 30.28 in 10.0 mi West 6.9 mph - N/A   Clear
7:55 AM 50.0 °F 33.8 °F 54% 30.28 in 10.0 mi West 5.8 mph - N/A   Clear
8:15 AM 51.8 °F 35.6 °F 54% 30.28 in 9.0 mi WNW 5.8 mph - N/A   Clear
8:35 AM 53.6 °F 35.6 °F 51% 30.28 in 10.0 mi WNW 5.8 mph - N/A   Clear
8:55 AM 53.6 °F 35.6 °F 51% 30.28 in 9.0 mi WNW 8.1 mph - N/A   Clear
9:15 AM 55.4 °F 35.6 °F 47% 30.29 in 8.0 mi WNW 9.2 mph - N/A   Clear
9:35 AM 55.4 °F 35.6 °F 47% 30.30 in 9.0 mi West 9.2 mph - N/A   Clear
9:55 AM 57.2 °F 35.6 °F 44% 30.30 in 10.0 mi WNW 8.1 mph - N/A   Clear
10:15 AM 57.2 °F 35.6 °F 44% 30.30 in 10.0 mi WNW 9.2 mph - N/A   Clear
10:35 AM 57.2 °F 35.6 °F 44% 30.30 in 10.0 mi West 9.2 mph - N/A   Clear
10:55 AM 59.0 °F 35.6 °F 42% 30.30 in 10.0 mi West 6.9 mph - N/A   Clear
11:15 AM 59.0 °F 35.6 °F 42% 30.30 in 9.0 mi West 6.9 mph - N/A   Clear
11:35 AM 60.8 °F 32.0 °F 34% 30.30 in 10.0 mi West 8.1 mph - N/A   Clear
11:55 AM 60.8 °F 33.8 °F 36% 30.29 in 10.0 mi West 10.4 mph - N/A   Clear
12:15 PM 62.6 °F 32.0 °F 32% 30.29 in 10.0 mi West 9.2 mph - N/A   Clear
12:35 PM 64.4 °F 30.2 °F 28% 30.29 in 10.0 mi West 8.1 mph 16.1 mph N/A   Clear
12:55 PM 64.4 °F 28.4 °F 26% 30.28 in 10.0 mi WNW 10.4 mph - N/A   Clear
1:15 PM 64.4 °F 28.4 °F 26% 30.28 in 10.0 mi West 12.7 mph 20.7 mph N/A   Scattered Clouds
1:35 PM 66.2 °F 28.4 °F 24% 30.28 in 10.0 mi NW 13.8 mph 18.4 mph N/A   Mostly Cloudy
1:55 PM 64.4 °F 26.6 °F 24% 30.27 in 10.0 mi WNW 11.5 mph 17.3 mph N/A   Mostly Cloudy
2:15 PM 62.6 °F 28.4 °F 27% 30.28 in 10.0 mi WNW 9.2 mph - N/A   Partly Cloudy
2:35 PM 64.4 °F 28.4 °F 26% 30.27 in 10.0 mi NW 12.7 mph 19.6 mph N/A   Mostly Cloudy
2:55 PM 64.4 °F 28.4 °F 26% 30.27 in 10.0 mi West 9.2 mph - N/A   Overcast
3:15 PM 64.4 °F 28.4 °F 26% 30.27 in 10.0 mi NW 6.9 mph - N/A   Overcast
3:35 PM 64.4 °F 28.4 °F 26% 30.26 in 10.0 mi WNW 9.2 mph - N/A   Overcast
3:55 PM 66.2 °F 30.2 °F 26% 30.26 in 10.0 mi NNW 9.2 mph 18.4 mph N/A   Mostly Cloudy
4:15 PM 64.4 °F 30.2 °F 28% 30.26 in 10.0 mi NW 11.5 mph - N/A   Mostly Cloudy
4:35 PM 66.2 °F 28.4 °F 24% 30.26 in 10.0 mi WNW 12.7 mph 17.3 mph N/A   Mostly Cloudy
4:55 PM 66.2 °F 28.4 °F 24% 30.26 in 10.0 mi NW 12.7 mph 18.4 mph N/A   Mostly Cloudy
5:15 PM 66.2 °F 28.4 °F 24% 30.26 in 10.0 mi West 5.8 mph 19.6 mph N/A   Scattered Clouds
5:35 PM 64.4 °F 30.2 °F 28% 30.26 in 10.0 mi North 4.6 mph - N/A   Mostly Cloudy
5:55 PM 64.4 °F 30.2 °F 28% 30.27 in 10.0 mi NNW 9.2 mph - N/A   Overcast
6:15 PM 62.6 °F 30.2 °F 30% 30.27 in 10.0 mi NNW 8.1 mph - N/A   Mostly Cloudy
6:35 PM 62.6 °F 32.0 °F 32% 30.27 in 10.0 mi North 4.6 mph - N/A   Mostly Cloudy
6:55 PM 60.8 °F 32.0 °F 34% 30.27 in 10.0 mi North 4.6 mph - N/A   Mostly Cloudy
7:15 PM 59.0 °F 33.8 °F 39% 30.28 in 10.0 mi North 4.6 mph - N/A   Overcast
7:35 PM 59.0 °F 33.8 °F 39% 30.28 in 10.0 mi Calm Calm - N/A   Overcast
7:55 PM 57.2 °F 35.6 °F 44% 30.29 in 10.0 mi NNW 3.5 mph - N/A   Overcast
8:15 PM 55.4 °F 35.6 °F 47% 30.30 in 10.0 mi Calm Calm - N/A   Overcast
8:35 PM 55.4 °F 35.6 °F 47% 30.31 in 10.0 mi NNW 6.9 mph - N/A   Overcast
8:55 PM 57.2 °F 32.0 °F 38% 30.31 in 10.0 mi NNW 10.4 mph - N/A   Overcast
9:15 PM 57.2 °F 32.0 °F 38% 30.32 in 10.0 mi NNW 3.5 mph - N/A   Overcast
9:35 PM 57.2 °F 33.8 °F 41% 30.32 in 10.0 mi NNW 5.8 mph - N/A   Overcast
9:55 PM 55.4 °F 33.8 °F 44% 30.33 in 10.0 mi NNW 6.9 mph - N/A   Overcast
10:15 PM 55.4 °F 33.8 °F 44% 30.34 in 10.0 mi NNW 6.9 mph - N/A   Overcast
10:35 PM 53.6 °F 35.6 °F 51% 30.35 in 10.0 mi NW 5.8 mph - N/A   Overcast
10:55 PM 53.6 °F 35.6 °F 51% 30.34 in 10.0 mi North 3.5 mph - N/A   Overcast
11:15 PM 53.6 °F 39.2 °F 58% 30.33 in 10.0 mi Calm Calm - N/A   Overcast
11:35 PM 50.0 °F 42.8 °F 76% 30.33 in 10.0 mi Calm Calm - N/A   Overcast
11:55 PM 50.0 °F 41.0 °F 71% 30.33 in 10.0 mi Calm Calm - N/A   Mostly Cloudy